Location: Chefe Valiua
(16.5342°S, 37.2214°E)
Time: 14:37:26
(UTC+00:00)

Envisat - Pass Details

Date: 22 June 2021
Orbit: 764 x 766 km, 98.1° (Epoch: 25 July)

Event Time Altitude Azimuth Distance (km) Brightness Sun altitude
Rises 03:07:31 0° 346° (NNW) 3,210 6.3 -12.2°
Reaches altitude 10° 03:10:11 10° 333° (NNW) 2,291 5.4 -11.6°
Maximum altitude 03:14:14 24° 279° (W) 1,530 4.1 -10.7°
Drops below altitude 10° 03:18:20 10° 225° (SW) 2,309 4.9 -9.8°
Enters shadow 03:18:28 10° 224° (SW) 2,350 5.0 -9.8°
